Location: Wapato
(46.4478°N, 120.4212°W)
Time: 01:56:41
(UTC+00:00)

Tiros 1 - Visible Passes

Search period start: 14 May 2026 00:00
Search period end: 24 May 2026 00:00
Orbit: 618 x 648 km, 48.4° (Epoch: 13 May)

Date Brightness Start Highest point End Pass type
(mag) Time Alt. Az. Time Alt. Az. Time Alt. Az.
14 May 7.6 08:40:38 45° ESE 08:40:38 45° ESE 08:44:03 10° ENE visible
14 May 7.3 10:17:58 17° W 10:21:26 71° N 10:26:00 10° ENE visible
15 May 9.5 07:23:15 11° E 07:23:15 11° E 07:23:27 10° E visible
15 May 6.9 09:00:35 74° WSW 09:01:00 88° SSE 09:05:35 10° ENE visible
15 May 7.4 10:38:29 10° W 10:43:04 68° N 10:47:37 10° E visible
16 May 8.6 07:43:08 25° E 07:43:08 25° E 07:45:11 10° ENE visible
16 May 7.2 09:20:27 31° W 09:22:34 74° N 09:27:08 10° ENE visible
16 May 7.2 11:00:04 10° WNW 11:04:40 77° NNE 11:09:14 10° E visible
17 May 7.2 08:02:51 62° E 08:02:51 62° E 08:06:45 10° ENE visible
17 May 7.3 09:40:10 13° W 09:44:10 68° N 09:48:44 10° E visible
17 May 7.0 11:21:37 10° WNW 11:26:12 81° SSW 11:30:45 10° ESE visible
18 May 8.9 06:45:01 18° E 06:45:01 18° E 06:46:18 10° ENE visible
18 May 7.1 08:22:17 45° W 08:23:41 78° NNW 08:28:17 10° ENE visible
18 May 7.2 10:01:11 10° WNW 10:05:48 73° N 10:10:21 10° E visible
18 May 7.2 11:43:11 10° WNW 11:47:38 52° SSW 11:52:03 10° SE visible
19 May9.705:26:28E05:26:28E05:16:35SSWvisible
19 May 7.0 07:03:39 67° ESE 07:03:39 67° ESE 07:07:53 10° ENE visible
19 May 7.3 08:40:48 11° W 08:45:17 68° N 08:49:52 10° E visible
19 May 7.0 10:22:44 10° WNW 10:27:21 89° SSW 10:31:56 10° ESE visible
20 May 7.5 05:38:50 10° SW 05:43:07 38° SSE 05:47:23 10° E visible
20 May 7.0 07:20:09 10° WSW 07:24:49 84° NNW 07:29:25 10° ENE visible
20 May 7.3 09:02:17 10° WNW 09:06:54 70° N 09:11:28 10° E visible
20 May 7.0 10:44:17 10° WNW 10:48:49 61° SSW 10:53:18 10° SE visible
21 May 8.5 04:20:04 10° S 04:23:11 18° SE 04:26:17 10° E visible
21 May 7.0 05:59:52 10° SW 06:04:27 62° SSE 06:09:01 10° ENE visible
21 May 7.3 07:41:45 10° W 07:46:23 70° N 07:50:59 10° E visible
21 May 7.0 09:23:51 10° WNW 09:28:29 84° NNE 09:33:04 10° ESE visible
21 May 7.6 11:05:56 10° W 11:10:09 36° SSW 11:14:19 10° SSE visible
22 May 7.8 04:40:12 10° SSW 04:44:20 32° SE 04:48:27 10° E visible
22 May 7.0 06:21:16 10° WSW 06:25:56 89° SE 06:30:33 10° ENE visible
22 May 7.3 08:03:23 10° W 08:08:01 69° N 08:12:35 10° E visible
22 May 6.9 09:45:24 10° WNW 09:49:59 70° SSW 09:54:31 10° ESE visible
22 May 8.3 11:27:56 10° W 11:31:19 21° SW 11:34:41 10° S visible
23 May 7.2 05:01:05 10° SW 05:05:37 54° SSE 05:10:09 10° ENE visible
23 May 7.3 06:42:50 10° W 06:47:30 73° N 06:52:06 10° ENE visible
23 May 7.1 08:24:58 10° WNW 08:29:37 79° NNE 08:34:12 10° E visible
23 May 7.3 10:07:00 10° WNW 10:11:21 43° SSW 10:15:40 10° SE visible
